Station LWSD1 - 8557380 - Lewes, DE Image indicating link to RSS feed of recent meteorological observations for station LWSD1


Conditions at LWSD1 as of
(10:30 pm EDT on 07/22/2024)
0230 GMT on 07/23/2024:
     

Click on the graph icon in the table below to see a time series plot of the last five days of that observation.

5-day plot - Wind Direction Wind Direction (WDIR):SSW ( 210 deg true )
5-day plot - Wind Speed Wind Speed (WSPD): 5.1 kts
5-day plot - Wind Gust Wind Gust (GST): 7.0 kts
5-day plot - Atmospheric Pressure Atmospheric Pressure (PRES):30.00 in
5-day plot - Air Temperature Air Temperature (ATMP): 72.5 °F
5-day plot - Water Temperature Water Temperature (WTMP): 69.6 °F
5-day plot - Wind Speed at 10 Meters Wind Speed at 10 meters (WSPD10M): 5.8 kts
5-day plot - Wind Speed at 20 Meters Wind Speed at 20 meters (WSPD20M): 5.8 kts
5-day plot -  Wind Speed, Wind Gust and Atmospheric Pressure Combined plot of Wind Speed, Gust, and Air Pressure
NOS Water Level Observation Network Water Level
Previous observations
TIME
(EDT)
5-day plot - Wind Direction
WDIR
 
5-day plot - Wind Speed
WSPD
kts
5-day plot - Wind Gust
GST
kts
5-day plot - Wave Height
WVHT
ft
5-day plot - Dominant Wave Period
DPD
sec
5-day plot - Average Wave Period
APD
sec
5-day plot - Mean Wave Direction
MWD
 
5-day plot - Atmospheric Pressure
PRES
in
5-day plot - Pressure Tendency
PTDY
in
5-day plot - Air Temperature
ATMP
°F
5-day plot - Water Temperature
WTMP
°F
5-day plot - Dew Point
DEWP
°F
5-day plot - Salinity
SAL
psu
5-day plot - Visibility
VIS
nmi
5-day plot - Tide (above MLLW)
TIDE
ft
2024-07-22 10:24 pmSSW 4.1 6.0----30.00- 72.5 69.6----
2024-07-22 10:18 pmSSW 2.9 6.0----29.99- 72.5 69.6----
2024-07-22 10:12 pmSSW 4.1 6.0----29.99- 72.5 69.6----
2024-07-22 10:06 pmSSW 2.9 5.1----29.99- 72.3 69.6----
2024-07-22 10:00 pmSSW 2.9 6.0----29.99+0.00 72.3 69.6----
2024-07-22 09:54 pm S 5.1 7.0----29.99- 72.1 69.6----
2024-07-22 09:48 pm S 5.1 6.0----29.99- 72.1 69.8----
2024-07-22 09:42 pm S 5.1 7.0----30.00- 72.1 69.8----
2024-07-22 09:36 pm S 5.1 8.0----30.00- 72.1 70.0----
2024-07-22 09:30 pm S 6.0 8.0----30.00- 72.1 70.2----
2024-07-22 09:24 pm S 6.0 8.0----30.00- 72.1 70.3----
2024-07-22 09:18 pm S 7.0 8.0----30.00- 72.1 70.7----
2024-07-22 09:12 pm S 6.0 7.0----29.99- 72.1 71.2----
2024-07-22 09:06 pm S 4.1 6.0----29.99- 72.3 71.6----
2024-07-22 09:00 pmSSW 5.1 8.0----30.00+0.00 72.5 71.6----
2024-07-22 08:54 pmSSW 5.1 7.0----29.99- 72.7 71.2----
2024-07-22 08:48 pm SW 5.1 9.9----29.99- 72.9 70.9----
2024-07-22 08:42 pmSSW 6.0 13.0----29.99- 72.9 70.9----
2024-07-22 08:36 pm S 9.9 13.0----29.99- 72.9 70.7----
2024-07-22 08:30 pm S 6.0 8.0----29.99- 72.7 70.9----
2024-07-22 08:24 pmSSE 6.0 9.9----29.98- 72.3 71.1----
2024-07-22 08:18 pmESE 5.1 6.0----29.98- 71.6 70.9----
2024-07-22 08:12 pm E 5.1 6.0----29.98- 70.3 71.2----
2024-07-22 08:06 pm E 7.0 9.9----29.98- 70.3 71.4----
2024-07-22 08:00 pmESE 8.0 8.9----29.98-0.04 70.7 71.2----
2024-07-22 07:54 pmESE 7.0 8.0----29.98- 71.4 72.0----
2024-07-22 07:48 pm SE 5.1 6.0----29.99-- 71.4----
2024-07-22 07:42 pmESE 4.1 5.1----29.99-- 71.2----
2024-07-22 07:36 pmESE 4.1 4.1----30.00-- 71.6----
2024-07-22 07:30 pm SE 2.9 4.1----29.99-- 69.8----
2024-07-22 07:24 pm SE 2.9 4.1----30.00-- 68.4----
2024-07-22 07:18 pm SE 1.9 5.1----30.00- 72.1 68.5----
2024-07-22 07:12 pm SE 2.9 5.1----29.99- 72.1 68.9----
2024-07-22 07:06 pm SE 4.1 7.0----30.00- 72.0 70.2----
2024-07-22 07:00 pmESE 5.1 6.0----29.99-0.04 72.1 71.8----
2024-07-22 06:54 pm SE 4.1 5.1----30.00- 72.0 70.0----
2024-07-22 06:48 pmESE 2.9 5.1----30.00- 72.1 68.2----
2024-07-22 06:42 pm SE 2.9 5.1----30.00- 72.5 68.4----
2024-07-22 06:36 pmESE 4.1 5.1----30.00- 72.1 68.5----
2024-07-22 06:30 pmESE 4.1 4.1----30.00- 72.3 68.4----
2024-07-22 06:24 pm E 1.9 2.9----30.00- 72.1 68.2----
2024-07-22 06:18 pm E 1.9 2.9----30.00- 72.1 68.0----
2024-07-22 06:12 pmESE 1.9 4.1----30.00- 72.0 67.8----
2024-07-22 06:06 pmESE 2.9 4.1----30.00- 72.0 67.8----
2024-07-22 06:00 pmESE 4.1 5.1----30.00-0.04 72.1 67.6----
2024-07-22 05:54 pm SE 4.1 4.1----30.00- 72.1 67.6----
2024-07-22 05:48 pmESE 2.9 4.1----30.00- 72.1 67.6----
2024-07-22 05:42 pm SE 2.9 5.1----30.01- 72.3 67.6----
2024-07-22 05:36 pm SE 2.9 5.1----30.01- 72.3 67.8----
2024-07-22 05:30 pm-------30.01-- 68.0----
2024-07-22 05:24 pm-------30.01-- 68.0----
2024-07-22 05:18 pm E 5.1 5.1----30.01- 72.1 68.0----
2024-07-22 05:12 pmESE 4.1 6.0----30.01- 72.5 68.0----
2024-07-22 05:06 pm E 5.1 6.0----30.01- 72.5 68.2----
2024-07-22 05:00 pmESE 2.9 5.1----30.02-0.02- 68.2----
2024-07-22 04:54 pmSSE 4.1 6.0----30.02-- 68.2----
2024-07-22 04:48 pm SE 4.1 8.0----30.02- 73.2 68.2----
2024-07-22 04:42 pm SE 6.0 8.0----30.02- 73.9 68.2----
2024-07-22 04:36 pmESE 5.1 6.0----30.02- 74.7 68.0----
2024-07-22 04:30 pm E 1.9 2.9----30.02- 74.5 68.2----
2024-07-22 04:24 pm E 2.9 4.1----30.02- 74.5 68.2----
2024-07-22 04:18 pm E 4.1 4.1----30.02- 75.0 68.4----
2024-07-22 04:12 pmESE 2.9 4.1----30.02- 75.2 68.4----
2024-07-22 04:06 pm SE 2.9 5.1----30.03- 75.4 68.4----
2024-07-22 04:00 pmSSE 2.9 5.1----30.03-0.03 75.4 68.4----
2024-07-22 03:54 pmSSE 2.9 5.1----30.03- 75.4 68.2----
2024-07-22 03:48 pm SE 5.1 6.0----30.03-- 68.4----
2024-07-22 03:42 pmSSE 4.1 5.1----30.03-- 68.4----
2024-07-22 03:36 pm SE 5.1 6.0----30.03-- 68.4----
2024-07-22 03:30 pmESE 4.1 6.0----30.03- 74.7 68.5----
2024-07-22 03:24 pm SE 4.1 5.1----30.03- 74.8 68.5----
2024-07-22 03:18 pm E 2.9 4.1----30.03- 74.7 68.4----
2024-07-22 03:12 pmESE 2.9 6.0----30.04- 74.8 68.5----
2024-07-22 03:06 pm SE 4.1 8.0----30.04- 75.2 68.5----
2024-07-22 03:00 pmSSE 5.1 7.0----30.04-0.03 76.1 68.5----
2024-07-22 02:54 pmSSE 5.1 9.9----30.04- 76.3 68.5----
2024-07-22 02:48 pmSSE 7.0 9.9----30.04- 76.5 68.5----
2024-07-22 02:42 pmSSE 5.1 8.9----30.04- 77.2 68.7----
2024-07-22 02:36 pm SE 5.1 8.9----30.04- 77.4 68.7----
2024-07-22 02:30 pm SE 7.0 9.9----30.03- 77.7 68.7----
2024-07-22 02:24 pmSSE 5.1 8.9----30.04- 77.9 68.9----
2024-07-22 02:18 pmSSE 7.0 9.9----30.04- 77.9 68.9----
2024-07-22 02:12 pmSSE 8.0 11.1----30.04- 77.9 68.9----
2024-07-22 02:06 pmSSE 5.1 11.1----30.04- 78.4 68.9----
2024-07-22 02:00 pmSSE 7.0 11.1----30.04-0.04 78.1 68.9----
2024-07-22 01:54 pmSSE 7.0 13.0----30.04- 78.3 68.9----
2024-07-22 01:48 pm S 8.9 14.0----30.04- 78.4 69.3----
2024-07-22 01:42 pmSSE 8.9 15.0----30.04- 78.3 69.4----
2024-07-22 01:36 pm S 7.0 11.1----30.05- 78.3 69.3----
2024-07-22 01:30 pmSSE 7.0 9.9----30.05- 77.9 69.1----
2024-07-22 01:24 pmSSE 6.0 11.1----30.05- 77.7 69.1----
2024-07-22 01:18 pmSSE 6.0 15.0----30.05- 77.5 68.9----
2024-07-22 01:12 pmSSE 9.9 14.0----30.05- 77.4 69.4----
2024-07-22 01:06 pmSSE 8.9 12.0----30.06- 77.5 70.0----
2024-07-22 01:00 pmSSE 8.9 14.0----30.06-0.02 77.5 70.2----
2024-07-22 12:54 pm S 8.9 14.0----30.06- 77.5 70.3----
2024-07-22 12:48 pmSSE 7.0 12.0----30.06- 77.7 70.5----
2024-07-22 12:42 pmSSE 7.0 8.9----30.06- 77.7 70.3----
2024-07-22 12:36 pmSSE 8.9 13.0----30.07- 77.7 70.7----
2024-07-22 12:30 pm S 8.0 13.0----30.07- 77.7 70.7----
2024-07-22 12:24 pmSSE 8.9 12.0----30.07- 77.7 70.7----
2024-07-22 12:18 pm SE 8.0 13.0----30.07- 77.5 70.7----
2024-07-22 12:12 pm SE 9.9 12.0----30.07- 77.7 70.7----
2024-07-22 12:06 pmSSE 6.0 11.1----30.08- 78.4 70.9----
2024-07-22 12:00 pmSSE 6.0 8.9----30.07-0.01 78.4 70.9----
2024-07-22 11:54 amSSE 8.0 13.0----30.08- 78.3 70.7----
2024-07-22 11:48 am SE 8.0 12.0----30.07- 78.1 70.7----
2024-07-22 11:42 amSSE 8.9 11.1----30.08- 77.5 70.9----
2024-07-22 11:36 am SE 7.0 12.0----30.07- 77.5 70.9----
2024-07-22 11:30 amSSE 8.9 11.1----30.08- 77.2 70.9----
2024-07-22 11:24 am S 8.0 11.1----30.08- 77.4 70.9----
2024-07-22 11:18 amSSE 6.0 12.0----30.08- 77.5 71.1----
2024-07-22 11:12 amSSE 7.0 8.9----30.08- 77.0 71.1----
2024-07-22 11:06 amSSE 6.0 8.9----30.08- 76.6 70.9----
2024-07-22 11:00 am E 2.9 8.9----30.08+0.00 76.5 70.7----
2024-07-22 10:54 amSSE 6.0 8.0----30.08- 76.6 70.7----
2024-07-22 10:48 amSSE 5.1 8.0----30.08- 76.6 70.9----
2024-07-22 10:42 amSSE 7.0 8.9----30.08- 76.6 71.1----
2024-07-22 10:36 am S 5.1 8.0----30.08- 76.6 71.2----
2024-07-22 10:30 amSSE 6.0 9.9----30.08- 76.5 71.1----
2024-07-22 10:24 am S 7.0 8.9----30.08- 76.3 70.9----
2024-07-22 10:18 amSSE 6.0 8.9----30.08- 76.5 70.9----
2024-07-22 10:12 amSSE 5.1 8.0----30.08- 76.3 70.7----
2024-07-22 10:06 am S 5.1 7.0----30.08- 75.9 70.9----
2024-07-22 10:00 amSSE 4.1 6.0----30.08+0.01 75.7 70.5----
2024-07-22 09:54 am S 4.1 7.0----30.08- 75.4 70.5----
2024-07-22 09:48 am SE 5.1 8.0----30.08- 75.2 70.5----
2024-07-22 09:42 am S 5.1 7.0----30.08- 75.2 70.3----
2024-07-22 09:36 am S 5.1 8.0----30.08- 75.0 70.5----
2024-07-22 09:30 amSSE 6.0 8.0----30.08- 74.8 70.7----
2024-07-22 09:24 amSSE 5.1 7.0----30.09- 74.8 70.3----
2024-07-22 09:18 amSSE 7.0 8.9----30.09- 75.0 70.5----
2024-07-22 09:12 amSSE 6.0 8.9----30.09- 75.0 70.3----
2024-07-22 09:06 amSSE 6.0 8.9----30.09- 75.2 70.5----
2024-07-22 09:00 amSSE 6.0 7.0----30.09+0.01 75.2 70.9----
2024-07-22 08:54 amSSE 2.9 6.0----30.09- 75.4 70.2----
2024-07-22 08:48 am S 4.1 6.0----30.09- 75.4 70.3----
2024-07-22 08:42 am S 5.1 7.0----30.09- 75.2 70.7----
2024-07-22 08:36 am S 5.1 7.0----30.09- 74.8 70.5----
2024-07-22 08:30 am S 4.1 7.0----30.09- 74.1 70.7----
2024-07-22 08:24 amSSE 5.1 8.9----30.08- 73.9 69.4----
2024-07-22 08:18 amSSE 6.0 8.0----30.08- 73.6 70.2----
2024-07-22 08:12 amSSE 5.1 6.0----30.08- 73.6 69.8----
2024-07-22 08:06 amSSE 4.1 5.1----30.08- 73.4 70.0----
2024-07-22 08:00 amSSE 4.1 8.0----30.08+0.02 73.2 70.3----
2024-07-22 07:54 amSSE 4.1 6.0----30.08- 73.2 70.9----
2024-07-22 07:48 am SE 4.1 5.1----30.07- 73.2 70.7----
2024-07-22 07:42 am SE 2.9 5.1----30.08- 73.4 70.3----
2024-07-22 07:36 amSSE 2.9 5.1----30.08- 73.2 69.8----
2024-07-22 07:30 amSSE 4.1 5.1----30.08- 73.0 70.2----
2024-07-22 07:24 am SE 1.9 4.1----30.07- 72.9 70.0----
2024-07-22 07:18 am SE 2.9 4.1----30.07- 72.7 69.6----
2024-07-22 07:12 am SE 2.9 4.1----30.07- 72.7 69.4----
2024-07-22 07:06 am SE 2.9 2.9----30.07- 72.7 69.3----
2024-07-22 07:00 am SE 1.9 2.9----30.07+0.00 72.3 69.1----
2024-07-22 06:54 amSSE 2.9 2.9----30.07- 72.1 69.1----
2024-07-22 06:48 amSSE 1.9 2.9----30.07- 71.8 68.9----
2024-07-22 06:42 amSSE 1.9 2.9----30.07- 71.6 68.5----
2024-07-22 06:36 am- 0.0 1.0----30.07- 71.8 68.4----
2024-07-22 06:30 amSSE 1.9 2.9----30.07- 71.8 68.2----
2024-07-22 06:24 am S 1.9 2.9----30.07- 71.4 68.2----
2024-07-22 06:18 am S 1.9 1.9----30.07- 71.8 68.2----
2024-07-22 06:12 amSSE 1.0 1.9----30.07- 71.6 68.0----
2024-07-22 06:06 am S 1.9 2.9----30.07- 71.4 67.6----
2024-07-22 06:00 am S 1.9 1.9----30.07+0.00 71.6 67.6----
2024-07-22 05:54 am S 1.0 4.1----30.07- 71.4 67.6----
2024-07-22 05:48 am S 2.9 5.1----30.07- 71.2 67.6----
2024-07-22 05:42 am S 2.9 5.1----30.07- 70.9 67.5----
2024-07-22 05:36 am S 1.9 2.9----30.07- 71.1 66.7----
2024-07-22 05:30 amSSE 1.0 1.9----30.07- 71.2 66.4----
2024-07-22 05:24 amSSE 1.9 1.9----30.07- 71.4 66.4----
2024-07-22 05:18 am S 1.0 2.9----30.07- 71.6 66.2----
2024-07-22 05:12 am SE 1.9 2.9----30.06- 71.8 66.2----
2024-07-22 05:06 am SE 1.9 2.9----30.06- 72.0 66.0----
2024-07-22 05:00 amSSE 1.9 1.9----30.06-0.03 72.0 65.8----
2024-07-22 04:54 am SE 1.9 2.9----30.06- 72.0 65.7----
2024-07-22 04:48 am SE 2.9 2.9----30.06- 71.8 65.7----
2024-07-22 04:42 am SE 1.9 2.9----30.06- 71.6 65.5----
2024-07-22 04:36 amESE 2.9 2.9----30.06- 71.4 65.5----
2024-07-22 04:30 am E 1.9 1.9----30.06- 71.1 65.5----
2024-07-22 04:24 amENE 1.9 2.9----30.06- 71.2 65.5----
2024-07-22 04:18 amENE 2.9 2.9----30.06- 71.4 65.7----
2024-07-22 04:12 am- 0.0 1.9----30.06- 72.5 65.7----
2024-07-22 04:06 am- 0.0 1.0----30.06- 72.9 65.7----
2024-07-22 04:00 am- 0.0 2.9----30.06-0.02 73.0 65.7----
2024-07-22 03:54 amSSW 1.9 2.9----30.06- 73.2 65.7----
2024-07-22 03:48 am S 1.9 2.9----30.06- 73.4 65.7----
2024-07-22 03:42 am S 1.0 1.9----30.06- 73.2 65.8----
2024-07-22 03:36 amSSE 1.9 4.1----30.06- 73.4 65.8----
2024-07-22 03:30 amSSW 1.9 4.1----30.06- 73.6 65.8----
2024-07-22 03:24 amSSW 2.9 4.1----30.06- 73.8 65.8----
2024-07-22 03:18 am S 1.9 4.1----30.07- 73.6 66.0----
2024-07-22 03:12 am S 2.9 4.1----30.07- 73.6 66.0----
2024-07-22 03:06 am S 4.1 5.1----30.07- 73.6 66.0----
2024-07-22 03:00 am S 4.1 5.1----30.07-0.02 73.6 66.0----
2024-07-22 02:54 am S 2.9 4.1----30.07- 73.8 66.0----
2024-07-22 02:48 am S 4.1 6.0----30.07- 73.9 66.0----
2024-07-22 02:42 am S 4.1 5.1----30.07- 73.9 66.0----
2024-07-22 02:36 am S 1.9 4.1----30.08- 73.9 66.2----
2024-07-22 02:30 am S 4.1 5.1----30.08- 73.9 66.0----
2024-07-22 02:24 am S 2.9 5.1----30.08- 73.9 66.0----
2024-07-22 02:18 am S 2.9 6.0----30.08- 73.9 66.0----
2024-07-22 02:12 am S 4.1 6.0----30.08- 73.9 66.0----
2024-07-22 02:06 am S 4.1 5.1----30.08- 73.8 66.0----
2024-07-22 02:00 am S 2.9 5.1----30.09+0.00 73.8 66.0----
2024-07-22 01:54 am S 2.9 4.1----30.09- 73.8 65.8----
2024-07-22 01:48 am S 2.9 4.1----30.09- 73.9 65.8----
2024-07-22 01:42 am S 2.9 4.1----30.09- 73.9 66.0----
2024-07-22 01:36 am S 4.1 5.1----30.09- 73.9 65.8----
2024-07-22 01:30 amSSE 4.1 5.1----30.09- 74.1 65.8----
2024-07-22 01:24 am S 4.1 5.1----30.09- 74.3 65.8----
2024-07-22 01:18 am S 2.9 5.1----30.09- 74.3 65.7----
2024-07-22 01:12 am S 4.1 5.1----30.09- 74.3 65.7----
2024-07-22 01:06 am S 2.9 5.1----30.09- 74.3 65.7----
2024-07-22 01:00 am S 2.9 5.1----30.09+0.01 74.3 65.5----
2024-07-22 12:54 am S 4.1 5.1----30.09- 74.5 65.5----
2024-07-22 12:48 am S 4.1 6.0----30.09- 74.3 65.5----
2024-07-22 12:42 am S 4.1 6.0----30.09- 74.3 65.5----
2024-07-22 12:36 am S 4.1 6.0----30.09- 74.5 65.5----
2024-07-22 12:30 am--------- 74.3 65.7----
2024-07-22 12:24 am--------- 74.5 65.7----
2024-07-22 12:18 am S 5.1 7.0----30.09- 74.5 65.7----
2024-07-22 12:12 am S 6.0 8.0----30.09- 74.7 65.8----
2024-07-22 12:06 am S 5.1 7.0----30.09- 74.7 66.0----
2024-07-22 12:00 am S 5.1 6.0----30.09+0.03 74.7 66.0----
2024-07-21 11:54 pm S 5.1 7.0----30.09- 74.7 66.2----
2024-07-21 11:48 pmSSE 4.1 7.0----30.09-- 66.4----
2024-07-21 11:42 pm S 4.1 7.0----30.09-- 66.4----
2024-07-21 11:36 pm S 5.1 8.0----30.09-- 66.6----
2024-07-21 11:30 pm S 6.0 8.0----30.09- 75.0 66.6----
2024-07-21 11:24 pm S 6.0 8.0----30.09- 75.0 66.6----
2024-07-21 11:18 pm S 4.1 7.0----30.09- 75.0 66.6----
2024-07-21 11:12 pmSSW 4.1 6.0----30.09- 75.0 66.6----
2024-07-21 11:06 pm S 5.1 7.0----30.09- 75.0 66.7----
2024-07-21 11:00 pm S 5.1 7.0----30.09+0.05 75.0 67.1----
2024-07-21 10:54 pm S 5.1 7.0----30.09- 75.0 66.9----